{"data":{"norad_id":41745,"epoch":"2026-05-24T09:34:51.738816Z","epoch_age_seconds":130021,"freshness":"FRESH","line1":"1 41745U 16052B   26144.39920994 -.00000361  00000+0  00000+0 0  9996","line2":"2 41745   4.1119  77.5597 0011481 149.6685 281.5069  1.00277427 27687","mean_motion":1.00277427,"eccentricity":0.0011481,"inclination_deg":4.1119,"raan_deg":77.5597,"arg_perigee_deg":149.6685,"mean_anomaly_deg":281.5069,"bstar":0,"rev_number":2768,"period_min":1436.0161036043,"perigee_km":35736.60586499,"apogee_km":35833.420890888,"semimajor_km":42163.150377939,"source":"CELESTRAK","updated_at":"2026-05-25T13:38:14.006500Z"}}